| time (UTC) | temp F | wind direction | speed MPH | gust MPH | rain 1hr in | rain 24hr in | rain mn in | humidity % | barometer mb |
| 20260903123047 | 67 | 37 | 1.0 | 10.0 | 0.00 | 0.00 | 0.00 | 98 | 903.9 |
| 20260903122848 | 67 | 311 | 4.0 | 11.0 | 0.00 | 0.00 | 0.00 | 97 | 903.9 |
| 20260903122547 | 67 | 72 | 6.0 | 10.0 | 0.00 | 0.00 | 0.00 | 97 | 903.9 |
| 20260903122248 | 67 | 2 | 5.0 | 10.0 | 0.00 | 0.00 | 0.00 | 97 | 903.9 |
| 20260903122047 | 67 | 51 | 3.0 | 7.0 | 0.00 | 0.00 | 0.00 | 97 | 904.0 |
| 20260903121648 | 67 | 125 | 2.0 | 5.0 | 0.00 | 0.00 | 0.00 | 97 | 904.0 |
| 20260903121547 | 67 | 109 | 1.0 | 5.0 | 0.00 | 0.00 | 0.00 | 98 | 903.9 |
| 20260903121048 | 67 | 268 | 3.0 | 10.0 | 0.00 | 0.00 | 0.00 | 97 | 903.9 |
| 20260903120546 | 67 | 248 | 5.0 | 10.0 | 0.00 | 0.00 | 0.00 | 97 | 903.9 |
| 20260903120047 | 67 | 4 | 5.0 | 13.0 | 0.01 | 0.01 | 0.00 | 97 | 903.9 |
| 20260903115848 | 67 | 29 | 5.0 | 10.0 | 0.01 | 0.01 | 0.00 | 97 | 903.8 |
| 20260903115546 | 67 | 15 | 3.0 | 9.0 | 0.00 | 0.00 | 0.00 | 97 | 903.9 |
| 20260903115248 | 67 | 101 | 2.0 | 9.0 | 0.00 | 0.00 | 0.00 | 97 | 903.9 |
| 20260903115047 | 67 | 328 | 4.0 | 9.0 | 0.00 | 0.00 | 0.00 | 97 | 903.9 |
| 20260903114648 | 67 | 277 | 2.0 | 4.0 | 0.00 | 0.00 | 0.00 | 97 | 903.9 |
| 20260903114546 | 67 | 29 | 1.0 | 4.0 | 0.00 | 0.00 | 0.00 | 97 | 903.9 |
| 20260903114048 | 67 | 15 | 5.0 | 9.0 | 0.00 | 0.00 | 0.00 | 97 | 904.0 |
| 20260903114046 | 67 | 34 | 5.0 | 9.0 | 0.00 | 0.00 | 0.00 | 97 | 903.9 |
| 20260903113546 | 67 | 21 | 4.0 | 9.0 | 0.00 | 0.00 | 0.00 | 97 | 904.0 |
| 20260903113448 | 67 | 27 | 4.0 | 9.0 | 0.00 | 0.00 | 0.00 | 97 | 904.0 |
| 20260903113046 | 67 | 24 | 4.0 | 8.0 | 0.00 | 0.00 | 0.00 | 97 | 903.9 |
| 20260903112848 | 67 | 71 | 2.0 | 8.0 | 0.00 | 0.00 | 0.00 | 97 | 903.9 |
| 20260903112547 | 67 | 63 | 3.0 | 8.0 | 0.00 | 0.00 | 0.00 | 97 | 903.9 |
| 20260903112248 | 68 | 7 | 2.0 | 7.0 | 0.00 | 0.00 | 0.00 | 97 | 903.9 |
| 20260903112046 | 68 | 40 | 2.0 | 7.0 | 0.00 | 0.00 | 0.00 | 97 | 903.9 |
| 20260903111648 | 68 | 15 | 3.0 | 7.0 | 0.00 | 0.00 | 0.00 | 97 | 903.8 |
| 20260903111546 | 68 | 100 | 2.0 | 7.0 | 0.00 | 0.00 | 0.00 | 97 | 903.7 |
| 20260903111047 | 68 | 25 | 2.0 | 7.0 | 0.00 | 0.00 | 0.00 | 97 | 903.8 |
| 20260903110546 | 68 | 294 | 3.0 | 6.0 | 0.00 | 0.00 | 0.00 | 97 | 903.7 |
| 20260903110447 | 68 | 97 | 3.0 | 6.0 | 0.00 | 0.00 | 0.00 | 97 | 903.7 |
| 20260903110046 | 68 | 6 | 1.0 | 5.0 | 0.00 | 0.00 | 0.00 | 97 | 903.7 |
| 20260903105847 | 68 | 277 | 2.0 | 6.0 | 0.00 | 0.00 | 0.00 | 97 | 903.7 |
| 20260903105546 | 68 | 332 | 3.0 | 6.0 | 0.00 | 0.00 | 0.00 | 97 | 903.6 |
| 20260903105247 | 68 | 310 | 2.0 | 6.0 | 0.00 | 0.00 | 0.00 | 97 | 903.7 |
| 20260903105046 | 68 | 317 | 2.0 | 8.0 | 0.00 | 0.00 | 0.00 | 97 | 903.6 |
| 20260903104647 | 68 | 64 | 2.0 | 8.0 | 0.00 | 0.00 | 0.00 | 97 | 903.7 |
| 20260903104546 | 68 | 112 | 2.0 | 8.0 | 0.00 | 0.00 | 0.00 | 97 | 903.6 |
| 20260903104047 | 68 | 134 | 2.0 | 7.0 | 0.00 | 0.00 | 0.00 | 97 | 903.6 |
| 20260903103546 | 68 | 48 | 1.0 | 8.0 | 0.00 | 0.00 | 0.00 | 97 | 903.6 |
| 20260903103450 | 68 | 66 | 2.0 | 8.0 | 0.00 | 0.00 | 0.00 | 97 | 903.6 |
| 20260903103046 | 68 | 121 | 3.0 | 8.0 | 0.00 | 0.00 | 0.00 | 97 | 903.5 |
| 20260903102847 | 68 | 221 | 3.0 | 8.0 | 0.00 | 0.00 | 0.00 | 97 | 903.5 |
| 20260903102546 | 68 | 131 | 3.0 | 6.0 | 0.00 | 0.00 | 0.00 | 97 | 903.5 |
| 20260903102248 | 67 | 145 | 0.0 | 0.0 | 0.00 | 0.00 | 0.00 | 97 | 903.4 |
| 20260903101546 | 68 | 195 | 4.0 | 10.0 | 0.01 | 0.01 | 0.00 | 96 | 903.3 |
| 20260903101047 | 68 | 66 | 2.0 | 10.0 | 0.00 | 0.00 | 0.00 | 96 | 903.4 |
| 20260903100546 | 68 | 124 | 3.0 | 4.0 | 0.00 | 0.00 | 0.00 | 96 | 903.4 |
| 20260903100447 | 68 | 122 | 2.0 | 4.0 | 0.00 | 0.00 | 0.00 | 96 | 903.4 |
| 20260903095847 | 68 | 42 | 0.0 | 6.0 | 0.00 | 0.00 | 0.00 | 96 | 903.3 |
| 20260903095546 | 68 | 145 | 4.0 | 9.0 | 0.00 | 0.00 | 0.00 | 96 | 903.2 |
| 20260903095247 | 68 | 112 | 3.0 | 7.0 | 0.00 | 0.00 | 0.00 | 96 | 903.1 |
| 20260903095045 | 68 | 176 | 3.0 | 7.0 | 0.00 | 0.00 | 0.00 | 96 | 903.1 |
| 20260903094647 | 68 | 163 | 0.0 | 4.0 | 0.00 | 0.00 | 0.00 | 96 | 903.1 |
| 20260903094545 | 68 | 93 | 3.0 | 8.0 | 0.00 | 0.00 | 0.00 | 96 | 903.1 |
| 20260903094049 | 68 | 87 | 1.0 | 6.0 | 0.00 | 0.00 | 0.00 | 96 | 903.2 |
| 20260903094047 | 68 | 85 | 1.0 | 6.0 | 0.00 | 0.00 | 0.00 | 96 | 903.2 |
| 20260903093545 | 68 | 121 | 2.0 | 5.0 | 0.00 | 0.00 | 0.00 | 95 | 903.1 |
| 20260903093447 | 68 | 186 | 0.0 | 3.0 | 0.00 | 0.00 | 0.00 | 95 | 903.1 |
| 20260903093045 | 68 | 108 | 2.0 | 10.0 | 0.00 | 0.00 | 0.00 | 95 | 903.1 |
| 20260903092847 | 68 | 360 | 6.0 | 10.0 | 0.00 | 0.00 | 0.00 | 95 | 903.1 |
| 20260903092545 | 68 | 255 | 0.0 | 2.0 | 0.00 | 0.00 | 0.00 | 95 | 903.0 |
| 20260903092247 | 68 | 70 | 3.0 | 10.0 | 0.00 | 0.00 | 0.00 | 95 | 903.1 |
| 20260903092045 | 68 | 149 | 4.0 | 10.0 | 0.00 | 0.00 | 0.00 | 95 | 903.0 |
| 20260903091647 | 69 | 113 | 3.0 | 10.0 | 0.00 | 0.00 | 0.00 | 95 | 902.9 |
| 20260903091545 | 69 | 102 | 4.0 | 10.0 | 0.00 | 0.00 | 0.00 | 95 | 902.9 |
| 20260903091047 | 69 | 94 | 3.0 | 9.0 | 0.00 | 0.00 | 0.00 | 94 | 902.8 |
| 20260903091045 | 69 | 95 | 3.0 | 9.0 | 0.00 | 0.00 | 0.00 | 94 | 902.8 |
| 20260903090545 | 69 | 96 | 3.0 | 9.0 | 0.00 | 0.00 | 0.00 | 94 | 902.8 |
| 20260903090447 | 69 | 41 | 3.0 | 9.0 | 0.00 | 0.00 | 0.00 | 94 | 902.8 |
| 20260903090045 | 69 | 327 | 1.0 | 9.0 | 0.00 | 0.00 | 0.00 | 94 | 902.7 |
| 20260903085846 | 69 | 22 | 3.0 | 9.0 | 0.00 | 0.00 | 0.00 | 94 | 902.8 |
| 20260903085545 | 69 | 95 | 2.0 | 9.0 | 0.00 | 0.00 | 0.00 | 94 | 902.7 |
| 20260903085247 | 69 | 115 | 4.0 | 9.0 | 0.00 | 0.00 | 0.00 | 94 | 902.8 |
| 20260903085045 | 69 | 102 | 4.0 | 6.0 | 0.00 | 0.00 | 0.00 | 94 | 902.8 |
| 20260903084646 | 69 | 281 | 4.0 | 7.0 | 0.00 | 0.00 | 0.00 | 94 | 902.8 |
| 20260903084545 | 69 | 89 | 4.0 | 7.0 | 0.00 | 0.00 | 0.00 | 94 | 902.7 |
| 20260903084047 | 69 | 146 | 1.0 | 9.0 | 0.00 | 0.00 | 0.00 | 94 | 902.6 |
| 20260903084045 | 69 | 154 | 1.0 | 9.0 | 0.00 | 0.00 | 0.00 | 94 | 902.6 |
| 20260903083545 | 69 | 77 | 2.0 | 4.0 | 0.00 | 0.00 | 0.00 | 94 | 902.7 |
| 20260903083446 | 69 | 344 | 1.0 | 4.0 | 0.00 | 0.00 | 0.00 | 94 | 902.7 |
| 20260903083045 | 69 | 295 | 4.0 | 9.0 | 0.00 | 0.00 | 0.00 | 94 | 902.7 |
| 20260903082846 | 69 | 129 | 4.0 | 9.0 | 0.00 | 0.00 | 0.00 | 94 | 902.6 |
| 20260903082545 | 69 | 103 | 4.0 | 9.0 | 0.00 | 0.00 | 0.00 | 94 | 902.6 |
| 20260903082247 | 69 | 242 | 4.0 | 9.0 | 0.00 | 0.00 | 0.00 | 94 | 902.6 |
| 20260903082045 | 69 | 83 | 1.0 | 7.0 | 0.00 | 0.00 | 0.00 | 94 | 902.6 |
| 20260903081646 | 69 | 313 | 4.0 | 10.0 | 0.00 | 0.00 | 0.00 | 93 | 902.5 |
| 20260903081545 | 69 | 148 | 4.0 | 9.0 | 0.00 | 0.00 | 0.00 | 93 | 902.6 |
| 20260903081046 | 69 | 40 | 3.0 | 7.0 | 0.00 | 0.00 | 0.00 | 93 | 902.5 |
| 20260903080545 | 69 | 271 | 5.0 | 10.0 | 0.00 | 0.00 | 0.00 | 93 | 902.5 |
| 20260903080446 | 69 | 97 | 4.0 | 10.0 | 0.00 | 0.00 | 0.00 | 93 | 902.4 |
| 20260903080045 | 69 | 74 | 0.0 | 4.0 | 0.00 | 0.00 | 0.00 | 94 | 902.4 |
| 20260903075846 | 69 | 297 | 3.0 | 10.0 | 0.00 | 0.00 | 0.00 | 93 | 902.4 |
| 20260903075545 | 69 | 259 | 4.0 | 9.0 | 0.00 | 0.00 | 0.00 | 94 | 902.5 |
| 20260903075247 | 69 | 2 | 0.0 | 5.0 | 0.00 | 0.00 | 0.00 | 94 | 902.4 |
| 20260903075045 | 69 | 200 | 3.0 | 9.0 | 0.00 | 0.00 | 0.00 | 94 | 902.4 |
| 20260903074646 | 69 | 121 | 3.0 | 5.0 | 0.00 | 0.00 | 0.00 | 94 | 902.4 |
| 20260903074545 | 69 | 87 | 1.0 | 4.0 | 0.00 | 0.00 | 0.00 | 94 | 902.5 |
| 20260903074046 | 69 | 108 | 4.0 | 10.0 | 0.00 | 0.00 | 0.00 | 94 | 902.4 |
| 20260903074044 | 69 | 109 | 4.0 | 10.0 | 0.00 | 0.00 | 0.00 | 94 | 902.4 |
| 20260903073544 | 69 | 111 | 4.0 | 10.0 | 0.00 | 0.00 | 0.00 | 93 | 902.4 |
| 20260903073446 | 69 | 125 | 4.0 | 10.0 | 0.00 | 0.00 | 0.00 | 93 | 902.5 |
| 20260903073044 | 70 | 135 | 3.0 | 10.0 | 0.00 | 0.00 | 0.00 | 93 | 902.5 |
| 20260903072846 | 70 | 350 | 4.0 | 10.0 | 0.00 | 0.00 | 0.00 | 93 | 902.6 |
| 20260903072544 | 70 | 144 | 6.0 | 10.0 | 0.00 | 0.00 | 0.00 | 93 | 902.5 |
| 20260903072247 | 70 | 137 | 3.0 | 9.0 | 0.00 | 0.00 | 0.00 | 93 | 902.5 |
| 20260903072044 | 70 | 105 | 4.0 | 9.0 | 0.00 | 0.00 | 0.00 | 93 | 902.5 |
| 20260903071646 | 70 | 64 | 3.0 | 9.0 | 0.00 | 0.00 | 0.00 | 93 | 902.5 |
| 20260903071544 | 70 | 149 | 4.0 | 9.0 | 0.00 | 0.00 | 0.00 | 93 | 902.5 |
| 20260903071046 | 70 | 148 | 3.0 | 10.0 | 0.00 | 0.00 | 0.00 | 93 | 902.5 |
| 20260903071044 | 70 | 136 | 3.0 | 10.0 | 0.00 | 0.00 | 0.00 | 93 | 902.5 |
| 20260903070544 | 70 | 59 | 4.0 | 10.0 | 0.00 | 0.00 | 0.00 | 93 | 902.5 |
| 20260903070446 | 70 | 287 | 3.0 | 10.0 | 0.00 | 0.00 | 0.00 | 93 | 902.5 |
| 20260903070044 | 70 | 72 | 5.0 | 9.0 | 0.00 | 0.00 | 0.00 | 93 | 902.5 |
| 20260903065845 | 70 | 255 | 3.0 | 9.0 | 0.00 | 0.00 | 0.00 | 92 | 902.6 |
| 20260903065544 | 70 | 178 | 2.0 | 9.0 | 0.00 | 0.00 | 0.00 | 92 | 902.5 |
| 20260903065246 | 70 | 182 | 4.0 | 9.0 | 0.00 | 0.00 | 0.00 | 92 | 902.5 |
| 20260903065044 | 70 | 156 | 2.0 | 7.0 | 0.00 | 0.00 | 0.00 | 92 | 902.5 |
| 20260903064645 | 70 | 74 | 3.0 | 6.0 | 0.00 | 0.00 | 0.00 | 93 | 902.5 |
| 20260903064545 | 70 | 163 | 1.0 | 6.0 | 0.00 | 0.00 | 0.00 | 93 | 902.6 |
| 20260903064046 | 70 | 159 | 4.0 | 9.0 | 0.00 | 0.00 | 0.00 | 93 | 902.6 |
| 20260903064044 | 70 | 148 | 4.0 | 9.0 | 0.00 | 0.00 | 0.00 | 93 | 902.6 |
| 20260903063544 | 70 | 89 | 4.0 | 10.0 | 0.00 | 0.00 | 0.00 | 93 | 902.6 |
| 20260903063446 | 70 | 258 | 5.0 | 10.0 | 0.00 | 0.00 | 0.00 | 93 | 902.6 |
| 20260903063044 | 70 | 99 | 4.0 | 10.0 | 0.00 | 0.00 | 0.00 | 93 | 902.7 |
| 20260903062245 | 70 | 125 | 3.0 | 10.0 | 0.00 | 0.00 | 0.00 | 93 | 902.7 |
| 20260903062044 | 70 | 163 | 2.0 | 7.0 | 0.00 | 0.00 | 0.00 | 93 | 902.7 |
| 20260903061645 | 70 | 204 | 4.0 | 6.0 | 0.00 | 0.00 | 0.00 | 93 | 902.8 |
| 20260903061544 | 70 | 148 | 2.0 | 5.0 | 0.00 | 0.00 | 0.00 | 94 | 902.8 |
| 20260903061046 | 70 | 104 | 5.0 | 14.0 | 0.00 | 0.00 | 0.00 | 93 | 902.6 |
| 20260903061044 | 70 | 97 | 4.0 | 10.0 | 0.00 | 0.00 | 0.00 | 93 | 902.6 |
| 20260903060544 | 70 | 111 | 3.0 | 11.0 | 0.00 | 0.00 | 0.00 | 93 | 902.8 |
| 20260903060445 | 70 | 53 | 3.0 | 11.0 | 0.00 | 0.00 | 0.00 | 93 | 902.9 |
| 20260903060044 | 70 | 64 | 5.0 | 11.0 | 0.00 | 0.00 | 0.00 | 93 | 902.8 |
| 20260903055845 | 70 | 348 | 4.0 | 11.0 | 0.00 | 0.00 | 0.00 | 93 | 902.7 |
| 20260903055544 | 70 | 130 | 4.0 | 9.0 | 0.00 | 0.00 | 0.00 | 93 | 902.8 |
| 20260903055245 | 70 | 200 | 4.0 | 8.0 | 0.00 | 0.00 | 0.00 | 93 | 902.9 |
| 20260903055044 | 70 | 70 | 3.0 | 7.0 | 0.00 | 0.00 | 0.00 | 93 | 902.9 |
| 20260903054645 | 70 | 41 | 4.0 | 11.0 | 0.00 | 0.00 | 0.00 | 93 | 902.9 |
| 20260903054543 | 70 | 161 | 5.0 | 11.0 | 0.00 | 0.00 | 0.00 | 93 | 902.9 |
| 20260903054045 | 70 | 207 | 2.0 | 9.0 | 0.00 | 0.00 | 0.00 | 93 | 902.8 |
| 20260903053544 | 70 | 120 | 5.0 | 10.0 | 0.00 | 0.00 | 0.00 | 93 | 902.8 |
| 20260903053445 | 70 | 251 | 5.0 | 10.0 | 0.00 | 0.00 | 0.00 | 93 | 902.9 |
| 20260903053043 | 70 | 71 | 5.0 | 10.0 | 0.00 | 0.00 | 0.00 | 93 | 902.9 |
| 20260903052543 | 70 | 264 | 4.0 | 9.0 | 0.00 | 0.00 | 0.00 | 93 | 902.9 |
| 20260903052245 | 70 | 127 | 4.0 | 9.0 | 0.00 | 0.00 | 0.00 | 94 | 903.0 |
| 20260903052043 | 70 | 164 | 2.0 | 9.0 | 0.00 | 0.00 | 0.00 | 94 | 902.9 |
| 20260903051645 | 69 | 95 | 4.0 | 10.0 | 0.00 | 0.00 | 0.00 | 93 | 902.9 |
| 20260903051543 | 69 | 192 | 5.0 | 10.0 | 0.00 | 0.00 | 0.00 | 93 | 902.9 |
| 20260903051045 | 69 | 115 | 5.0 | 9.0 | 0.00 | 0.00 | 0.00 | 94 | 902.9 |
| 20260903051043 | 69 | 92 | 5.0 | 9.0 | 0.00 | 0.00 | 0.00 | 94 | 902.9 |
| 20260903050543 | 69 | 45 | 1.0 | 6.0 | 0.00 | 0.00 | 0.00 | 94 | 902.8 |
| 20260903050043 | 68 | 150 | 5.0 | 13.0 | 0.00 | 0.00 | 0.00 | 94 | 902.8 |
| 20260903045844 | 69 | 298 | 4.0 | 13.0 | 0.00 | 0.00 | 0.00 | 94 | 902.9 |
| 20260903045543 | 69 | 154 | 7.0 | 13.0 | 0.00 | 0.00 | 0.00 | 94 | 902.8 |
| 20260903045244 | 69 | 152 | 4.0 | 9.0 | 0.00 | 0.00 | 0.00 | 94 | 902.9 |
| 20260903045043 | 69 | 130 | 2.0 | 8.0 | 0.00 | 0.00 | 0.00 | 94 | 902.9 |
| 20260903044644 | 69 | 235 | 3.0 | 9.0 | 0.00 | 0.00 | 0.00 | 94 | 902.9 |
| 20260903044543 | 69 | 206 | 4.0 | 9.0 | 0.00 | 0.00 | 0.00 | 94 | 903.0 |
| 20260903044045 | 69 | 154 | 4.0 | 7.0 | 0.00 | 0.00 | 0.00 | 94 | 903.0 |
| 20260903044043 | 69 | 146 | 4.0 | 7.0 | 0.00 | 0.00 | 0.00 | 94 | 903.0 |
| 20260903025844 | 68 | 3 | 5.0 | 11.0 | 0.00 | 0.00 | 0.00 | 94 | 903.3 |
| 20260903025542 | 68 | 23 | 4.0 | 10.0 | 0.00 | 0.00 | 0.00 | 93 | 903.3 |
| 20260903025243 | 68 | 6 | 8.0 | 18.0 | 0.00 | 0.00 | 0.00 | 93 | 903.3 |
| 20260903025042 | 68 | 11 | 9.0 | 18.0 | 0.00 | 0.00 | 0.00 | 93 | 903.4 |
| 20260903024644 | 68 | 359 | 8.0 | 15.0 | 0.00 | 0.00 | 0.00 | 93 | 903.3 |
| 20260903024542 | 68 | 352 | 8.0 | 15.0 | 0.00 | 0.00 | 0.00 | 93 | 903.4 |
| 20260903024044 | 68 | 311 | 8.0 | 16.0 | 0.00 | 0.00 | 0.00 | 93 | 903.4 |
| 20260903024042 | 68 | 315 | 8.0 | 16.0 | 0.00 | 0.00 | 0.00 | 93 | 903.4 |
| 20260903023542 | 68 | 327 | 3.0 | 16.0 | 0.00 | 0.00 | 0.00 | 93 | 903.4 |
| 20260903023443 | 68 | 309 | 9.0 | 17.0 | 0.00 | 0.00 | 0.00 | 94 | 903.4 |
| 20260903023042 | 67 | 352 | 0.0 | 0.0 | 0.00 | 0.00 | 0.00 | 94 | 903.4 |
| 20260903022843 | 67 | 348 | 6.0 | 16.0 | 0.00 | 0.00 | 0.00 | 94 | 903.4 |
| 20260903022542 | 67 | 316 | 5.0 | 16.0 | 0.00 | 0.00 | 0.00 | 94 | 903.4 |
| 20260903022243 | 67 | 320 | 7.0 | 16.0 | 0.00 | 0.00 | 0.00 | 93 | 903.4 |
| 20260903022043 | 67 | 317 | 6.0 | 10.0 | 0.00 | 0.00 | 0.00 | 93 | 903.4 |
| 20260903021643 | 68 | 0 | 9.0 | 15.0 | 0.00 | 0.00 | 0.00 | 93 | 903.4 |
| 20260903021542 | 68 | 350 | 8.0 | 15.0 | 0.00 | 0.00 | 0.00 | 93 | 903.3 |
| 20260903021045 | 68 | 314 | 3.0 | 14.0 | 0.00 | 0.00 | 0.00 | 93 | 903.4 |
| 20260903020542 | 68 | 337 | 0.0 | 0.0 | 0.00 | 0.00 | 0.00 | 92 | 903.3 |
| 20260903020443 | 68 | 338 | 1.0 | 12.0 | 0.00 | 0.00 | 0.00 | 92 | 903.3 |
| 20260903020042 | 68 | 13 | 1.0 | 10.0 | 0.00 | 0.00 | 0.00 | 92 | 903.3 |
| 20260903015843 | 69 | 360 | 10.0 | 21.0 | 0.00 | 0.00 | 0.00 | 92 | 903.1 |
| 20260903015542 | 68 | 294 | 10.0 | 18.0 | 0.00 | 0.00 | 0.00 | 93 | 903.2 |
| 20260903015243 | 68 | 2 | 8.0 | 15.0 | 0.00 | 0.00 | 0.00 | 93 | 903.2 |
| 20260903015042 | 67 | 45 | 8.0 | 15.0 | 0.00 | 0.00 | 0.00 | 94 | 903.3 |
| 20260903014643 | 67 | 298 | 8.0 | 16.0 | 0.00 | 0.00 | 0.00 | 94 | 903.2 |
| 20260903014542 | 67 | 344 | 9.0 | 17.0 | 0.00 | 0.00 | 0.00 | 94 | 903.3 |
| 20260903014043 | 66 | 318 | 9.0 | 17.0 | 0.00 | 0.00 | 0.00 | 94 | 903.3 |
| 20260903013542 | 66 | 350 | 9.0 | 16.0 | 0.00 | 0.00 | 0.00 | 94 | 903.2 |
| 20260903013443 | 66 | 9 | 7.0 | 16.0 | 0.00 | 0.00 | 0.00 | 94 | 903.3 |
| 20260903013042 | 66 | 4 | 6.0 | 12.0 | 0.00 | 0.00 | 0.00 | 94 | 903.3 |
| 20260903012843 | 66 | 349 | 0.0 | 7.0 | 0.00 | 0.00 | 0.00 | 94 | 903.4 |
| 20260903012542 | 67 | 341 | 8.0 | 17.0 | 0.00 | 0.00 | 0.00 | 94 | 903.5 |
| 20260903012243 | 67 | 358 | 7.0 | 17.0 | 0.00 | 0.00 | 0.00 | 94 | 903.3 |
| 20260903012042 | 67 | 4 | 9.0 | 17.0 | 0.00 | 0.00 | 0.00 | 94 | 903.3 |
| 20260903011643 | 67 | 333 | 8.0 | 14.0 | 0.00 | 0.00 | 0.00 | 94 | 903.4 |
| 20260903011541 | 67 | 301 | 8.0 | 14.0 | 0.00 | 0.00 | 0.00 | 94 | 903.4 |
| 20260903011043 | 66 | 37 | 8.0 | 17.0 | 0.00 | 0.00 | 0.00 | 94 | 903.3 |
| 20260903010541 | 66 | 29 | 7.0 | 17.0 | 0.00 | 0.00 | 0.00 | 94 | 903.3 |
| 20260903010443 | 66 | 342 | 8.0 | 17.0 | 0.00 | 0.00 | 0.00 | 94 | 903.3 |
| 20260903010041 | 66 | 331 | 10.0 | 17.0 | 0.00 | 0.00 | 0.00 | 94 | 903.4 |
| 20260903005843 | 66 | 360 | 9.0 | 17.0 | 0.00 | 0.00 | 0.00 | 94 | 903.3 |
| 20260903005541 | 66 | 316 | 9.0 | 14.0 | 0.00 | 0.00 | 0.00 | 94 | 903.4 |
| 20260903005243 | 66 | 347 | 4.0 | 14.0 | 0.00 | 0.00 | 0.00 | 95 | 903.4 |
| 20260903005041 | 66 | 331 | 9.0 | 15.0 | 0.00 | 0.00 | 0.00 | 95 | 903.4 |
| 20260903004643 | 66 | 333 | 8.0 | 16.0 | 0.00 | 0.00 | 0.00 | 95 | 903.4 |
| 20260903004541 | 66 | 360 | 7.0 | 16.0 | 0.00 | 0.00 | 0.00 | 95 | 903.4 |
| 20260903004043 | 65 | 349 | 4.0 | 16.0 | 0.00 | 0.00 | 0.00 | 96 | 903.4 |
| 20260903004041 | 65 | 345 | 4.0 | 16.0 | 0.00 | 0.00 | 0.00 | 96 | 903.5 |
| 20260903003541 | 65 | 22 | 7.0 | 14.0 | 0.00 | 0.00 | 0.00 | 96 | 903.5 |
| 20260903003442 | 65 | 316 | 9.0 | 14.0 | 0.00 | 0.00 | 0.00 | 96 | 903.5 |
| 20260903003042 | 65 | 28 | 7.0 | 13.0 | 0.00 | 0.00 | 0.00 | 96 | 903.4 |
| 20260903002842 | 65 | 351 | 2.0 | 13.0 | 0.00 | 0.00 | 0.00 | 96 | 903.4 |
| 20260903002541 | 65 | 360 | 6.0 | 14.0 | 0.00 | 0.00 | 0.00 | 96 | 903.4 |
| 20260903002242 | 65 | 349 | 5.0 | 15.0 | 0.00 | 0.00 | 0.00 | 96 | 903.3 |
| 20260903002041 | 65 | 4 | 6.0 | 15.0 | 0.00 | 0.00 | 0.00 | 96 | 903.5 |
| 20260903001642 | 65 | 334 | 8.0 | 15.0 | 0.00 | 0.00 | 0.00 | 96 | 903.5 |
| 20260903001541 | 65 | 350 | 9.0 | 16.0 | 0.00 | 0.00 | 0.00 | 96 | 903.4 |
| 20260903001043 | 65 | 13 | 9.0 | 16.0 | 0.00 | 0.00 | 0.00 | 96 | 903.4 |
| 20260903001041 | 65 | 4 | 9.0 | 16.0 | 0.00 | 0.00 | 0.00 | 96 | 903.5 |
| 20260903000541 | 65 | 301 | 9.0 | 14.0 | 0.00 | 0.00 | 0.00 | 96 | 903.4 |
| 20260903000442 | 65 | 358 | 9.0 | 14.0 | 0.00 | 0.00 | 0.00 | 96 | 903.4 |
| 20260903000041 | 64 | 9 | 7.0 | 14.0 | 0.00 | 0.00 | 0.00 | 96 | 903.4 |
| 20260902235842 | 64 | 360 | 7.0 | 14.0 | 0.00 | 0.00 | 0.00 | 96 | 903.4 |
| 20260902235541 | 64 | 337 | 8.0 | 14.0 | 0.00 | 0.00 | 0.00 | 96 | 903.4 |
| 20260902235242 | 64 | 360 | 5.0 | 14.0 | 0.00 | 0.00 | 0.00 | 96 | 903.4 |
| 20260902235041 | 64 | 357 | 8.0 | 14.0 | 0.00 | 0.00 | 0.00 | 96 | 903.4 |
| 20260902234642 | 64 | 335 | 8.0 | 14.0 | 0.00 | 0.00 | 0.00 | 96 | 903.4 |
| 20260902234542 | 64 | 360 | 8.0 | 14.0 | 0.00 | 0.00 | 0.00 | 96 | 903.4 |
| 20260902234042 | 64 | 12 | 7.0 | 15.0 | 0.00 | 0.00 | 0.00 | 96 | 903.3 |
| 20260902233541 | 64 | 324 | 9.0 | 15.0 | 0.00 | 0.00 | 0.00 | 97 | 903.2 |
| 20260902233442 | 64 | 351 | 9.0 | 15.0 | 0.00 | 0.00 | 0.00 | 97 | 903.2 |
| 20260902233041 | 64 | 106 | 8.0 | 15.0 | 0.00 | 0.00 | 0.00 | 97 | 903.2 |
| 20260902232842 | 64 | 27 | 9.0 | 15.0 | 0.00 | 0.00 | 0.00 | 97 | 903.2 |
| 20260902232541 | 64 | 360 | 7.0 | 15.0 | 0.00 | 0.00 | 0.00 | 97 | 903.2 |
| 20260902232242 | 64 | 13 | 6.0 | 15.0 | 0.00 | 0.00 | 0.00 | 97 | 903.1 |
| 20260902232041 | 64 | 334 | 8.0 | 15.0 | 0.00 | 0.00 | 0.00 | 97 | 903.1 |
| 20260902231642 | 64 | 355 | 6.0 | 13.0 | 0.00 | 0.00 | 0.00 | 97 | 903.1 |
| 20260902231541 | 64 | 320 | 3.0 | 12.0 | 0.00 | 0.00 | 0.00 | 97 | 903.0 |
| 20260902231042 | 64 | 12 | 9.0 | 15.0 | 0.00 | 0.00 | 0.00 | 97 | 902.9 |
| 20260902230541 | 64 | 287 | 8.0 | 15.0 | 0.00 | 0.00 | 0.00 | 97 | 902.9 |
| 20260902230442 | 64 | 3 | 9.0 | 15.0 | 0.00 | 0.00 | 0.00 | 97 | 902.9 |
| 20260902230040 | 64 | 322 | 4.0 | 10.0 | 0.00 | 0.00 | 0.00 | 97 | 902.8 |
| 20260902225842 | 64 | 2 | 5.0 | 15.0 | 0.00 | 0.00 | 0.00 | 97 | 902.9 |
| 20260902225242 | 64 | 331 | 6.0 | 15.0 | 0.00 | 0.00 | 0.00 | 97 | 902.8 |
| 20260902225040 | 63 | 106 | 3.0 | 15.0 | 0.00 | 0.00 | 0.00 | 97 | 902.8 |
| 20260902224641 | 63 | 64 | 5.0 | 14.0 | 0.00 | 0.00 | 0.00 | 97 | 903.0 |
| 20260902224540 | 63 | 116 | 5.0 | 12.0 | 0.00 | 0.00 | 0.00 | 97 | 902.9 |
| 20260902224042 | 63 | 283 | 4.0 | 12.0 | 0.00 | 0.00 | 0.00 | 97 | 902.8 |
| 20260902224040 | 63 | 266 | 4.0 | 12.0 | 0.00 | 0.00 | 0.00 | 97 | 902.8 |
| 20260902223540 | 63 | 253 | 4.0 | 12.0 | 0.00 | 0.00 | 0.00 | 97 | 902.8 |
| 20260902223441 | 63 | 271 | 4.0 | 12.0 | 0.00 | 0.00 | 0.00 | 97 | 902.7 |
| 20260902223040 | 63 | 316 | 5.0 | 16.0 | 0.00 | 0.00 | 0.00 | 97 | 902.9 |
| 20260902222842 | 63 | 259 | 4.0 | 16.0 | 0.00 | 0.00 | 0.00 | 97 | 902.9 |
| 20260902222540 | 63 | 265 | 5.0 | 16.0 | 0.00 | 0.00 | 0.00 | 97 | 902.8 |
| 20260902222241 | 63 | 241 | 5.0 | 16.0 | 0.00 | 0.00 | 0.00 | 97 | 902.8 |
| 20260902222040 | 63 | 331 | 5.0 | 14.0 | 0.00 | 0.00 | 0.00 | 97 | 902.8 |
| 20260902221641 | 63 | 266 | 6.0 | 14.0 | 0.00 | 0.00 | 0.00 | 97 | 902.7 |
| 20260902221042 | 63 | 35 | 4.0 | 13.0 | 0.00 | 0.00 | 0.00 | 97 | 902.6 |
| 20260902221040 | 63 | 47 | 4.0 | 13.0 | 0.00 | 0.00 | 0.00 | 97 | 902.6 |
| 20260902220540 | 63 | 16 | 6.0 | 13.0 | 0.00 | 0.00 | 0.00 | 97 | 902.6 |
| 20260902220441 | 63 | 46 | 5.0 | 11.0 | 0.00 | 0.00 | 0.00 | 97 | 902.7 |
| 20260902220040 | 63 | 265 | 5.0 | 13.0 | 0.00 | 0.00 | 0.00 | 97 | 902.7 |
| 20260902215841 | 63 | 14 | 4.0 | 13.0 | 0.00 | 0.00 | 0.00 | 97 | 902.7 |
| 20260902215541 | 63 | 295 | 4.0 | 13.0 | 0.00 | 0.00 | 0.00 | 97 | 902.6 |
| 20260902215241 | 63 | 199 | 4.0 | 13.0 | 0.00 | 0.00 | 0.00 | 97 | 902.6 |
| 20260902214641 | 63 | 360 | 4.0 | 13.0 | 0.00 | 0.00 | 0.00 | 97 | 902.6 |
| 20260902214540 | 63 | 46 | 4.0 | 13.0 | 0.00 | 0.00 | 0.00 | 97 | 902.5 |
| 20260902214042 | 63 | 271 | 4.0 | 13.0 | 0.00 | 0.00 | 0.00 | 97 | 902.6 |
| 20260902214040 | 63 | 284 | 4.0 | 13.0 | 0.00 | 0.00 | 0.00 | 97 | 902.6 |
| 20260902213540 | 64 | 315 | 6.0 | 13.0 | 0.00 | 0.00 | 0.00 | 96 | 902.6 |
| 20260902213441 | 64 | 17 | 6.0 | 13.0 | 0.00 | 0.00 | 0.00 | 96 | 902.6 |
| 20260902213040 | 64 | 5 | 6.0 | 15.0 | 0.00 | 0.00 | 0.00 | 96 | 902.6 |
| 20260902212841 | 64 | 328 | 7.0 | 16.0 | 0.00 | 0.00 | 0.00 | 96 | 902.7 |
| 20260902212540 | 64 | 360 | 9.0 | 16.0 | 0.00 | 0.00 | 0.00 | 96 | 902.6 |
| 20260902212241 | 64 | 342 | 9.0 | 16.0 | 0.00 | 0.00 | 0.00 | 96 | 902.6 |
| 20260902212040 | 64 | 338 | 10.0 | 19.0 | 0.00 | 0.00 | 0.00 | 96 | 902.5 |
| 20260902211641 | 64 | 353 | 9.0 | 19.0 | 0.00 | 0.00 | 0.00 | 96 | 902.5 |
| 20260902211540 | 64 | 29 | 9.0 | 19.0 | 0.00 | 0.00 | 0.00 | 96 | 902.3 |
| 20260902211041 | 64 | 309 | 9.0 | 17.0 | 0.00 | 0.00 | 0.00 | 96 | 902.3 |
| 20260902210540 | 64 | 325 | 9.0 | 17.0 | 0.00 | 0.00 | 0.00 | 96 | 902.4 |
| 20260902210441 | 64 | 338 | 9.0 | 17.0 | 0.00 | 0.00 | 0.00 | 96 | 902.5 |
| 20260902210040 | 64 | 337 | 8.0 | 17.0 | 0.00 | 0.00 | 0.00 | 97 | 902.5 |
| 20260902205841 | 64 | 348 | 10.0 | 16.0 | 0.00 | 0.00 | 0.00 | 97 | 902.5 |
| 20260902205539 | 64 | 335 | 4.0 | 15.0 | 0.00 | 0.00 | 0.00 | 97 | 902.3 |
| 20260902205241 | 64 | 356 | 9.0 | 15.0 | 0.00 | 0.00 | 0.00 | 97 | 902.3 |
| 20260902205039 | 64 | 11 | 10.0 | 15.0 | 0.00 | 0.00 | 0.00 | 97 | 902.4 |
| 20260902204641 | 64 | 16 | 9.0 | 15.0 | 0.00 | 0.00 | 0.00 | 97 | 902.4 |
| 20260902204541 | 64 | 356 | 9.0 | 15.0 | 0.00 | 0.00 | 0.00 | 96 | 902.4 |
| 20260902204041 | 64 | 342 | 9.0 | 15.0 | 0.00 | 0.00 | 0.00 | 96 | 902.3 |
| 20260902204039 | 64 | 303 | 9.0 | 15.0 | 0.00 | 0.00 | 0.00 | 96 | 902.3 |
| 20260902203539 | 64 | 354 | 9.0 | 15.0 | 0.00 | 0.00 | 0.00 | 96 | 902.4 |
| 20260902203440 | 64 | 3 | 9.0 | 15.0 | 0.00 | 0.00 | 0.00 | 96 | 902.4 |
| 20260902203039 | 64 | 2 | 9.0 | 19.0 | 0.00 | 0.00 | 0.00 | 96 | 902.3 |
| 20260902202840 | 64 | 327 | 9.0 | 19.0 | 0.00 | 0.00 | 0.00 | 96 | 902.3 |
| 20260902202240 | 64 | 1 | 11.0 | 19.0 | 0.00 | 0.00 | 0.00 | 96 | 902.3 |
| 20260902202039 | 64 | 360 | 9.0 | 17.0 | 0.00 | 0.00 | 0.00 | 96 | 902.3 |
| 20260902201640 | 64 | 350 | 9.0 | 19.0 | 0.00 | 0.00 | 0.00 | 96 | 902.2 |
| 20260902201539 | 64 | 349 | 8.0 | 19.0 | 0.00 | 0.00 | 0.00 | 96 | 902.3 |
| 20260902201041 | 64 | 22 | 8.0 | 20.0 | 0.00 | 0.00 | 0.00 | 96 | 902.2 |
| 20260902201039 | 64 | 357 | 8.0 | 20.0 | 0.00 | 0.00 | 0.00 | 96 | 902.2 |
| 20260902200539 | 64 | 351 | 10.0 | 20.0 | 0.00 | 0.00 | 0.00 | 96 | 902.1 |
| 20260902200440 | 64 | 35 | 10.0 | 20.0 | 0.00 | 0.00 | 0.00 | 96 | 902.3 |
| 20260902200039 | 64 | 324 | 10.0 | 19.0 | 0.00 | 0.00 | 0.00 | 96 | 902.4 |
| 20260902195840 | 64 | 22 | 9.0 | 19.0 | 0.00 | 0.00 | 0.00 | 97 | 902.4 |
| 20260902195539 | 64 | 6 | 9.0 | 18.0 | 0.00 | 0.00 | 0.00 | 96 | 902.4 |
| 20260902195240 | 64 | 1 | 9.0 | 18.0 | 0.00 | 0.00 | 0.00 | 96 | 902.3 |
| 20260902195039 | 64 | 349 | 8.0 | 18.0 | 0.00 | 0.00 | 0.00 | 96 | 902.5 |
| 20260902194640 | 64 | 9 | 7.0 | 16.0 | 0.00 | 0.00 | 0.00 | 96 | 902.5 |
| 20260902194539 | 64 | 360 | 9.0 | 16.0 | 0.00 | 0.00 | 0.00 | 96 | 902.5 |
| 20260902194041 | 64 | 355 | 9.0 | 14.0 | 0.00 | 0.00 | 0.00 | 96 | 902.2 |
| 20260902194039 | 64 | 347 | 9.0 | 14.0 | 0.00 | 0.00 | 0.00 | 96 | 902.3 |
| 20260902193539 | 64 | 353 | 9.0 | 15.0 | 0.00 | 0.00 | 0.00 | 96 | 902.4 |
| 20260902193440 | 64 | 316 | 9.0 | 15.0 | 0.00 | 0.00 | 0.00 | 96 | 902.4 |
| 20260902193039 | 64 | 1 | 9.0 | 16.0 | 0.00 | 0.00 | 0.00 | 96 | 902.4 |
| 20260902192840 | 64 | 341 | 9.0 | 16.0 | 0.00 | 0.00 | 0.00 | 96 | 902.5 |
| 20260902192539 | 64 | 3 | 8.0 | 17.0 | 0.00 | 0.00 | 0.00 | 96 | 902.5 |
| 20260902192240 | 64 | 336 | 10.0 | 17.0 | 0.00 | 0.00 | 0.00 | 96 | 902.5 |
| 20260902192039 | 64 | 348 | 8.0 | 17.0 | 0.00 | 0.00 | 0.00 | 96 | 902.5 |
| 20260902191640 | 64 | 340 | 10.0 | 17.0 | 0.00 | 0.00 | 0.00 | 97 | 902.5 |
| 20260902191040 | 64 | 23 | 8.0 | 16.0 | 0.00 | 0.00 | 0.00 | 97 | 902.7 |
| 20260902191038 | 64 | 351 | 8.0 | 16.0 | 0.00 | 0.00 | 0.00 | 97 | 902.7 |
| 20260902190538 | 64 | 339 | 8.0 | 16.0 | 0.00 | 0.00 | 0.00 | 96 | 902.6 |
| 20260902190440 | 64 | 347 | 9.0 | 16.0 | 0.00 | 0.00 | 0.00 | 96 | 902.6 |
| 20260902190038 | 64 | 88 | 8.0 | 15.0 | 0.00 | 0.00 | 0.00 | 96 | 902.6 |
| 20260902185840 | 64 | 358 | 9.0 | 15.0 | 0.00 | 0.00 | 0.00 | 96 | 902.7 |
| 20260902185538 | 64 | 60 | 8.0 | 18.0 | 0.00 | 0.00 | 0.00 | 96 | 902.7 |
| 20260902185240 | 64 | 353 | 8.0 | 18.0 | 0.00 | 0.00 | 0.00 | 96 | 902.8 |
| 20260902185038 | 65 | 299 | 9.0 | 18.0 | 0.00 | 0.00 | 0.00 | 96 | 902.5 |
| 20260902184640 | 65 | 333 | 10.0 | 19.0 | 0.00 | 0.00 | 0.00 | 96 | 902.6 |
| 20260902184538 | 65 | 357 | 8.0 | 19.0 | 0.00 | 0.00 | 0.00 | 96 | 902.6 |
| 20260902184040 | 65 | 2 | 10.0 | 20.0 | 0.00 | 0.00 | 0.00 | 96 | 902.6 |
| 20260902184038 | 65 | 341 | 10.0 | 20.0 | 0.00 | 0.00 | 0.00 | 96 | 902.6 |
| 20260902183538 | 65 | 327 | 8.0 | 20.0 | 0.00 | 0.00 | 0.00 | 96 | 902.7 |
| 20260902183440 | 65 | 330 | 9.0 | 20.0 | 0.00 | 0.00 | 0.00 | 96 | 902.7 |
| 20260902183038 | 65 | 351 | 10.0 | 17.0 | 0.00 | 0.00 | 0.00 | 96 | 902.6 |
| 20260902182840 | 65 | 266 | 10.0 | 17.0 | 0.00 | 0.00 | 0.00 | 96 | 902.8 |
| 20260902182538 | 65 | 5 | 10.0 | 17.0 | 0.00 | 0.00 | 0.00 | 96 | 902.6 |
| 20260902182240 | 65 | 340 | 6.0 | 16.0 | 0.00 | 0.00 | 0.00 | 96 | 902.8 |
| 20260902182038 | 65 | 2 | 8.0 | 18.0 | 0.00 | 0.00 | 0.00 | 96 | 902.9 |
| 20260902181639 | 65 | 336 | 9.0 | 18.0 | 0.00 | 0.00 | 0.00 | 96 | 902.9 |
| 20260902181538 | 65 | 360 | 9.0 | 18.0 | 0.00 | 0.00 | 0.00 | 96 | 903.0 |
| 20260902181040 | 65 | 303 | 9.0 | 17.0 | 0.00 | 0.00 | 0.00 | 96 | 903.1 |
| 20260902180439 | 65 | 347 | 9.0 | 16.0 | 0.00 | 0.00 | 0.00 | 97 | 903.2 |
| 20260902175839 | 65 | 2 | 8.0 | 14.0 | 0.00 | 0.00 | 0.00 | 96 | 903.4 |
| 20260902175538 | 65 | 319 | 6.0 | 13.0 | 0.00 | 0.00 | 0.00 | 97 | 903.3 |
| 20260902175239 | 65 | 331 | 8.0 | 18.0 | 0.00 | 0.00 | 0.00 | 97 | 903.4 |
| 20260902175038 | 65 | 313 | 8.0 | 18.0 | 0.00 | 0.00 | 0.00 | 97 | 903.5 |
| 20260902174639 | 65 | 11 | 3.0 | 13.0 | 0.00 | 0.00 | 0.00 | 97 | 903.4 |
| 20260902174538 | 64 | 32 | 0.0 | 0.0 | 0.00 | 0.00 | 0.00 | 97 | 903.5 |
| 20260902174039 | 65 | 63 | 8.0 | 19.0 | 0.00 | 0.00 | 0.00 | 97 | 903.5 |
| 20260902173538 | 65 | 29 | 9.0 | 19.0 | 0.00 | 0.00 | 0.00 | 97 | 903.3 |
| 20260902173439 | 65 | 325 | 10.0 | 19.0 | 0.00 | 0.00 | 0.00 | 97 | 903.4 |
| 20260902173039 | 65 | 296 | 7.0 | 18.0 | 0.00 | 0.00 | 0.00 | 97 | 903.6 |
| 20260902172839 | 65 | 329 | 8.0 | 18.0 | 0.00 | 0.00 | 0.00 | 96 | 903.5 |
| 20260902172538 | 65 | 305 | 8.0 | 18.0 | 0.00 | 0.00 | 0.00 | 96 | 903.5 |
| 20260902172239 | 65 | 10 | 9.0 | 18.0 | 0.00 | 0.00 | 0.00 | 97 | 903.5 |
| 20260902171639 | 65 | 338 | 7.0 | 21.0 | 0.00 | 0.00 | 0.00 | 97 | 903.4 |
| 20260902171538 | 65 | 298 | 8.0 | 21.0 | 0.00 | 0.00 | 0.00 | 97 | 903.5 |
| 20260902171039 | 65 | 360 | 8.0 | 22.0 | 0.00 | 0.00 | 0.00 | 97 | 903.5 |
| 20260902170538 | 65 | 43 | 8.0 | 19.0 | 0.00 | 0.00 | 0.00 | 97 | 903.6 |
| 20260902170439 | 65 | 360 | 10.0 | 19.0 | 0.00 | 0.00 | 0.00 | 97 | 903.6 |
| 20260902170037 | 65 | 3 | 7.0 | 19.0 | 0.00 | 0.00 | 0.00 | 97 | 903.7 |
| 20260902165839 | 65 | 0 | 8.0 | 19.0 | 0.00 | 0.00 | 0.00 | 97 | 903.5 |
| 20260902165537 | 65 | 317 | 8.0 | 19.0 | 0.00 | 0.00 | 0.00 | 97 | 903.5 |
| 20260902165239 | 65 | 305 | 8.0 | 19.0 | 0.00 | 0.00 | 0.00 | 97 | 903.5 |
| 20260902165038 | 65 | 350 | 7.0 | 19.0 | 0.00 | 0.00 | 0.00 | 97 | 903.6 |
| 20260902164639 | 65 | 21 | 10.0 | 19.0 | 0.00 | 0.00 | 0.00 | 97 | 903.6 |
| 20260902164537 | 65 | 315 | 9.0 | 19.0 | 0.00 | 0.00 | 0.00 | 97 | 903.5 |
| 20260902164039 | 65 | 14 | 10.0 | 19.0 | 0.00 | 0.00 | 0.00 | 97 | 903.4 |
| 20260902164037 | 65 | 2 | 10.0 | 19.0 | 0.00 | 0.00 | 0.00 | 97 | 903.4 |
| 20260902163439 | 65 | 333 | 9.0 | 18.0 | 0.00 | 0.00 | 0.00 | 97 | 903.4 |
| 20260902162839 | 65 | 360 | 10.0 | 18.0 | 0.00 | 0.00 | 0.00 | 97 | 903.3 |
| 20260902162239 | 65 | 327 | 9.0 | 23.0 | 0.00 | 0.00 | 0.00 | 97 | 903.4 |
| 20260902161639 | 66 | 310 | 11.0 | 23.0 | 0.00 | 0.00 | 0.00 | 97 | 903.4 |
| 20260902161537 | 66 | 353 | 10.0 | 17.0 | 0.00 | 0.00 | 0.00 | 97 | 903.4 |
| 20260902161039 | 66 | 360 | 8.0 | 17.0 | 0.00 | 0.00 | 0.00 | 97 | 903.4 |
| 20260902161037 | 66 | 350 | 8.0 | 17.0 | 0.00 | 0.00 | 0.00 | 97 | 903.4 |
| 20260902160440 | 65 | 322 | 0.0 | 0.0 | 0.00 | 0.00 | 0.00 | 97 | 903.5 |
| 20260902160037 | 65 | 360 | 10.0 | 21.0 | 0.00 | 0.00 | 0.00 | 97 | 903.4 |
| 20260902155839 | 65 | 349 | 10.0 | 18.0 | 0.00 | 0.00 | 0.00 | 97 | 903.4 |
| 20260902155537 | 66 | 358 | 10.0 | 21.0 | 0.00 | 0.00 | 0.00 | 97 | 903.6 |
| 20260902155238 | 66 | 15 | 10.0 | 21.0 | 0.00 | 0.00 | 0.00 | 97 | 903.5 |
| 20260902155037 | 66 | 359 | 11.0 | 21.0 | 0.00 | 0.00 | 0.00 | 97 | 903.5 |
| 20260902154638 | 66 | 342 | 8.0 | 23.0 | 0.00 | 0.00 | 0.00 | 97 | 903.5 |
| 20260902154537 | 66 | 319 | 10.0 | 23.0 | 0.00 | 0.00 | 0.00 | 97 | 903.5 |
| 20260902154039 | 65 | 12 | 12.0 | 23.0 | 0.00 | 0.00 | 0.00 | 97 | 903.5 |
| 20260902154037 | 65 | 15 | 12.0 | 23.0 | 0.00 | 0.00 | 0.00 | 97 | 903.5 |
| 20260902153537 | 66 | 360 | 10.0 | 19.0 | 0.00 | 0.00 | 0.00 | 97 | 903.4 |
| 20260902153438 | 66 | 317 | 10.0 | 19.0 | 0.00 | 0.00 | 0.00 | 98 | 903.5 |
| 20260902153037 | 66 | 327 | 9.0 | 23.0 | 0.00 | 0.00 | 0.00 | 98 | 903.6 |
| 20260902152838 | 66 | 5 | 11.0 | 23.0 | 0.00 | 0.00 | 0.00 | 98 | 903.4 |
| 20260902152537 | 66 | 335 | 10.0 | 20.0 | 0.00 | 0.00 | 0.00 | 98 | 903.7 |
| 20260902152238 | 66 | 296 | 10.0 | 18.0 | 0.00 | 0.00 | 0.00 | 98 | 903.7 |
| 20260902152037 | 66 | 21 | 10.0 | 18.0 | 0.00 | 0.00 | 0.00 | 98 | 903.6 |
| 20260902151638 | 66 | 14 | 9.0 | 15.0 | 0.00 | 0.00 | 0.00 | 98 | 903.7 |
| 20260902151537 | 66 | 14 | 10.0 | 15.0 | 0.00 | 0.00 | 0.00 | 99 | 903.7 |
| 20260902144038 | 66 | 316 | 11.0 | 20.0 | 0.00 | 0.00 | 0.00 | 98 | 904.0 |
| 20260902144036 | 66 | 335 | 11.0 | 20.0 | 0.00 | 0.00 | 0.00 | 98 | 904.0 |
| 20260902143536 | 66 | 322 | 9.0 | 18.0 | 0.00 | 0.00 | 0.00 | 98 | 904.0 |
| 20260902143438 | 66 | 360 | 9.0 | 16.0 | 0.00 | 0.00 | 0.00 | 98 | 904.1 |
| 20260902143036 | 66 | 350 | 8.0 | 18.0 | 0.00 | 0.00 | 0.00 | 98 | 904.1 |
| 20260902142838 | 66 | 309 | 8.0 | 18.0 | 0.00 | 0.00 | 0.00 | 98 | 904.1 |
| 20260902142536 | 66 | 335 | 10.0 | 18.0 | 0.00 | 0.00 | 0.00 | 98 | 904.1 |
| 20260902142238 | 66 | 360 | 11.0 | 18.0 | 0.00 | 0.00 | 0.00 | 98 | 904.1 |
| 20260902142036 | 66 | 354 | 9.0 | 15.0 | 0.00 | 0.00 | 0.00 | 98 | 904.1 |
| 20260902141638 | 66 | 6 | 9.0 | 14.0 | 0.00 | 0.00 | 0.00 | 98 | 904.2 |
| 20260902141536 | 66 | 333 | 6.0 | 12.0 | 0.00 | 0.00 | 0.00 | 98 | 904.0 |
| 20260902141038 | 66 | 342 | 3.0 | 13.0 | 0.00 | 0.00 | 0.00 | 98 | 904.1 |
| 20260902141036 | 66 | 13 | 3.0 | 13.0 | 0.00 | 0.00 | 0.00 | 98 | 904.1 |
| 20260902140537 | 66 | 336 | 0.0 | 8.0 | 0.00 | 0.00 | 0.00 | 98 | 904.0 |
| 20260902140438 | 66 | 316 | 4.0 | 11.0 | 0.00 | 0.00 | 0.00 | 98 | 904.0 |
| 20260902140036 | 66 | 63 | 1.0 | 6.0 | 0.00 | 0.00 | 0.00 | 98 | 904.1 |
| 20260902135536 | 66 | 330 | 4.0 | 10.0 | 0.00 | 0.00 | 0.00 | 98 | 904.1 |
| 20260902135237 | 66 | 300 | 4.0 | 10.0 | 0.00 | 0.00 | 0.00 | 98 | 904.1 |
| 20260902135036 | 66 | 271 | 4.0 | 8.0 | 0.00 | 0.00 | 0.00 | 98 | 904.1 |
| 20260902134638 | 66 | 261 | 2.0 | 7.0 | 0.00 | 0.00 | 0.00 | 98 | 904.0 |
| 20260902134536 | 66 | 256 | 1.0 | 4.0 | 0.00 | 0.00 | 0.00 | 98 | 903.9 |
| 20260902134038 | 66 | 42 | 0.0 | 5.0 | 0.00 | 0.00 | 0.00 | 98 | 903.8 |
| 20260902134036 | 66 | 46 | 0.0 | 5.0 | 0.00 | 0.00 | 0.00 | 98 | 903.8 |
| 20260902133536 | 66 | 327 | 7.0 | 15.0 | 0.00 | 0.00 | 0.00 | 98 | 903.9 |
| 20260902133437 | 66 | 52 | 7.0 | 15.0 | 0.00 | 0.00 | 0.00 | 98 | 903.9 |
| 20260902132837 | 66 | 355 | 7.0 | 15.0 | 0.00 | 0.00 | 0.00 | 98 | 903.8 |
| 20260902132536 | 66 | 18 | 1.0 | 8.0 | 0.00 | 0.00 | 0.00 | 98 | 903.9 |
| 20260902132237 | 66 | 360 | 6.0 | 11.0 | 0.00 | 0.00 | 0.00 | 98 | 903.9 |
| 20260902132036 | 66 | 3 | 4.0 | 10.0 | 0.00 | 0.00 | 0.00 | 98 | 904.1 |
| 20260902131637 | 66 | 18 | 5.0 | 12.0 | 0.00 | 0.00 | 0.00 | 98 | 904.0 |
| 20260902131536 | 66 | 360 | 5.0 | 12.0 | 0.00 | 0.00 | 0.00 | 98 | 903.9 |
| 20260902131036 | 66 | 200 | 5.0 | 10.0 | 0.00 | 0.00 | 0.00 | 98 | 903.9 |
| 20260902130537 | 66 | 4 | 5.0 | 13.0 | 0.00 | 0.00 | 0.00 | 98 | 903.9 |
| 20260902130437 | 67 | 355 | 6.0 | 13.0 | 0.00 | 0.00 | 0.00 | 98 | 903.7 |
| 20260902130036 | 67 | 64 | 6.0 | 11.0 | 0.00 | 0.00 | 0.00 | 98 | 903.7 |
| 20260902125837 | 67 | 34 | 4.0 | 11.0 | 0.00 | 0.00 | 0.00 | 98 | 903.7 |
| 20260902125536 | 67 | 6 | 7.0 | 16.0 | 0.00 | 0.00 | 0.00 | 98 | 903.5 |
| 20260902125237 | 67 | 360 | 7.0 | 16.0 | 0.00 | 0.00 | 0.00 | 98 | 903.5 |
| 20260902125036 | 67 | 20 | 7.0 | 13.0 | 0.00 | 0.00 | 0.00 | 98 | 903.6 |
| 20260902124536 | 67 | 71 | 6.0 | 13.0 | 0.00 | 0.00 | 0.00 | 98 | 903.4 |
| 20260902124037 | 67 | 16 | 7.0 | 13.0 | 0.00 | 0.00 | 0.00 | 98 | 903.5 |
| 20260902124035 | 67 | 31 | 7.0 | 13.0 | 0.00 | 0.00 | 0.00 | 98 | 903.5 |
| 20260902123536 | 67 | 28 | 2.0 | 13.0 | 0.00 | 0.00 | 0.00 | 99 | 903.4 |